contact: severine.martini@mio.osupytheas.fr, dominique.lefevre@mio.osupytheas.fr
Project:EMSO Ligure-ouest http://www.emso-fr.org/EMSO-France
Sensor Optode, line 4330 Serial 272 
DOI : "https://doi.org/10.17882/97948" 
Title:EMSO Ligure Ouest : Data BathyDock capteur Optode - deploiement "2023-04-28"
Datetime,Profondeur,Latitude,Longitude,optode_type,serial,O2_concentration,O2_saturation,Temperature,Calibrated_Phase,Temp_Compensated_Phase,phase_blue_light,phase_red_light,Amplitude_blue_light,Amplitude_red_light,thermistor_bridge
time,m,degree_north,degree_east,1,1,umol.l-1,%,degree_C,degree,degree,degree,degree,mV,mV,mV
2023-09-29T00:00:07,2420,42.8014,5.9826,4330,272,186.901,57.249,13.315,36.009,36.589,41.185,4.596,295.2,542.5,291.1
2023-09-29T00:03:08,2420,42.8014,5.9826,4330,272,186.762,57.209,13.317,36.017,36.597,41.194,4.597,295.2,542.4,291.0
2023-09-29T00:06:08,2420,42.8014,5.9826,4330,272,186.781,57.214,13.316,36.016,36.596,41.186,4.590,295.2,542.4,291.0
2023-09-29T00:09:08,2420,42.8014,5.9826,4330,272,187.067,57.301,13.316,35.998,36.578,41.176,4.598,295.3,542.4,291.0
2023-09-29T00:12:08,2420,42.8014,5.9826,4330,272,187.021,57.287,13.316,36.000,36.581,41.178,4.597,295.2,542.4,291.0
2023-09-29T00:15:08,2420,42.8014,5.9826,4330,272,186.882,57.246,13.317,36.009,36.589,41.182,4.593,295.3,542.4,291.0
2023-09-29T00:18:07,2420,42.8014,5.9826,4330,272,187.036,57.292,13.316,36.000,36.580,41.175,4.595,295.2,542.5,291.0
2023-09-29T00:21:07,2420,42.8014,5.9826,4330,272,186.749,57.208,13.319,36.016,36.596,41.191,4.594,295.2,542.4,290.9
2023-09-29T00:24:07,2420,42.8014,5.9826,4330,272,186.881,57.251,13.321,36.007,36.588,41.182,4.595,295.3,542.4,290.9
2023-09-29T00:27:07,2420,42.8014,5.9826,4330,272,186.586,57.158,13.319,36.027,36.607,41.200,4.593,295.2,542.4,290.9
2023-09-29T00:30:07,2420,42.8014,5.9826,4330,272,186.848,57.234,13.316,36.012,36.592,41.188,4.597,295.2,542.4,291.0
2023-09-29T00:33:08,2420,42.8014,5.9826,4330,272,186.809,57.226,13.319,36.013,36.593,41.184,4.591,295.2,542.4,290.9
2023-09-29T00:36:07,2420,42.8014,5.9826,4330,272,186.737,57.200,13.316,36.019,36.599,41.192,4.593,295.3,542.4,291.0
2023-09-29T00:39:07,2420,42.8014,5.9826,4330,272,186.808,57.225,13.318,36.013,36.593,41.187,4.594,295.2,542.4,291.0
2023-09-29T00:42:07,2420,42.8014,5.9826,4330,272,186.635,57.170,13.317,36.025,36.605,41.204,4.599,295.3,542.5,291.0
2023-09-29T00:45:07,2420,42.8014,5.9826,4330,272,186.954,57.270,13.318,36.003,36.584,41.179,4.595,295.2,542.4,291.0
2023-09-29T00:48:07,2420,42.8014,5.9826,4330,272,186.946,57.264,13.316,36.006,36.586,41.181,4.596,295.2,542.5,291.0
2023-09-29T00:51:07,2420,42.8014,5.9826,4330,272,186.761,57.206,13.315,36.017,36.598,41.188,4.591,295.2,542.4,291.1
2023-09-29T00:54:07,2420,42.8014,5.9826,4330,272,186.918,57.255,13.316,36.007,36.587,41.183,4.595,295.2,542.5,291.0
2023-09-29T00:57:07,2420,42.8014,5.9826,4330,272,186.959,57.265,13.314,36.005,36.586,41.185,4.599,295.3,542.4,291.1
2023-09-29T01:00:08,2420,42.8014,5.9826,4330,272,186.699,57.186,13.314,36.023,36.603,41.197,4.594,295.2,542.5,291.1
2023-09-29T01:03:07,2420,42.8014,5.9826,4330,272,186.783,57.217,13.319,36.015,36.595,41.189,4.594,295.2,542.4,290.9
2023-09-29T01:06:07,2420,42.8014,5.9826,4330,272,186.658,57.179,13.319,36.023,36.603,41.196,4.593,295.2,542.4,290.9
2023-09-29T01:09:07,2420,42.8014,5.9826,4330,272,186.639,57.172,13.317,36.024,36.604,41.197,4.592,295.2,542.4,291.0
2023-09-29T01:12:07,2420,42.8014,5.9826,4330,272,186.695,57.184,13.314,36.023,36.603,41.198,4.595,295.3,542.4,291.1
2023-09-29T01:15:07,2420,42.8014,5.9826,4330,272,186.850,57.239,13.320,36.010,36.590,41.184,4.594,295.2,542.4,290.9
2023-09-29T01:18:07,2420,42.8014,5.9826,4330,272,186.634,57.167,13.315,36.026,36.606,41.198,4.592,295.3,542.5,291.1
2023-09-29T01:21:08,2420,42.8014,5.9826,4330,272,186.552,57.144,13.317,36.030,36.610,41.199,4.589,295.2,542.5,291.0
2023-09-29T01:24:08,2420,42.8014,5.9826,4330,272,186.799,57.219,13.316,36.014,36.594,41.184,4.590,295.3,542.4,291.0
2023-09-29T01:27:08,2420,42.8014,5.9826,4330,272,186.693,57.192,13.320,36.020,36.600,41.192,4.592,295.3,542.5,290.9
2023-09-29T01:30:08,2420,42.8014,5.9826,4330,272,186.567,57.146,13.314,36.031,36.611,41.204,4.594,295.3,542.5,291.1
2023-09-29T01:33:07,2420,42.8014,5.9826,4330,272,186.683,57.181,13.314,36.024,36.604,41.196,4.592,295.2,542.5,291.1
2023-09-29T01:36:07,2420,42.8014,5.9826,4330,272,186.865,57.236,13.314,36.011,36.592,41.188,4.596,295.2,542.4,291.1
2023-09-29T01:39:07,2420,42.8014,5.9826,4330,272,186.628,57.167,13.316,36.026,36.606,41.198,4.593,295.3,542.5,291.0
2023-09-29T01:42:08,2420,42.8014,5.9826,4330,272,186.696,57.187,13.316,36.021,36.601,41.193,4.591,295.3,542.4,291.0
2023-09-29T01:45:08,2420,42.8014,5.9826,4330,272,186.896,57.247,13.315,36.009,36.590,41.181,4.591,295.3,542.5,291.1
2023-09-29T01:48:08,2420,42.8014,5.9826,4330,272,186.543,57.144,13.318,36.030,36.610,41.199,4.588,295.3,542.4,291.0
2023-09-29T01:51:08,2420,42.8014,5.9826,4330,272,186.676,57.182,13.316,36.023,36.603,41.192,4.589,295.3,542.4,291.0
2023-09-29T01:54:08,2420,42.8014,5.9826,4330,272,186.762,57.212,13.320,36.015,36.596,41.187,4.591,295.3,542.4,290.9
2023-09-29T01:57:08,2420,42.8014,5.9826,4330,272,186.638,57.176,13.321,36.023,36.603,41.196,4.593,295.2,542.4,290.9
2023-09-29T02:00:08,2420,42.8014,5.9826,4330,272,186.781,57.220,13.321,36.013,36.594,41.186,4.592,295.3,542.4,290.9
2023-09-29T02:03:07,2420,42.8014,5.9826,4330,272,186.816,57.228,13.319,36.012,36.593,41.190,4.597,295.3,542.4,290.9
2023-09-29T02:06:07,2420,42.8014,5.9826,4330,272,186.618,57.173,13.324,36.023,36.603,41.193,4.590,295.3,542.4,290.8
2023-09-29T02:09:07,2420,42.8014,5.9826,4330,272,186.599,57.163,13.320,36.026,36.606,41.193,4.587,295.2,542.3,290.9
2023-09-29T02:12:07,2420,42.8014,5.9826,4330,272,186.506,57.133,13.319,36.033,36.613,41.206,4.593,295.3,542.4,290.9
2023-09-29T02:15:07,2420,42.8014,5.9826,4330,272,186.672,57.183,13.318,36.022,36.602,41.199,4.597,295.3,542.5,291.0
2023-09-29T02:18:07,2420,42.8014,5.9826,4330,272,186.698,57.190,13.318,36.021,36.601,41.193,4.592,295.3,542.5,291.0
2023-09-29T02:21:07,2420,42.8014,5.9826,4330,272,186.539,57.145,13.320,36.030,36.610,41.203,4.593,295.4,542.4,290.9
2023-09-29T02:24:07,2420,42.8014,5.9826,4330,272,186.705,57.192,13.318,36.020,36.600,41.194,4.593,295.3,542.4,291.0
2023-09-29T02:27:07,2420,42.8014,5.9826,4330,272,186.441,57.115,13.320,36.036,36.616,41.206,4.590,295.3,542.4,290.9
2023-09-29T02:30:07,2420,42.8014,5.9826,4330,272,186.763,57.207,13.315,36.018,36.598,41.190,4.593,295.3,542.5,291.1
2023-09-29T02:33:07,2420,42.8014,5.9826,4330,272,186.775,57.212,13.316,36.016,36.596,41.186,4.589,295.4,542.4,291.0
2023-09-29T02:36:07,2420,42.8014,5.9826,4330,272,186.686,57.186,13.318,36.022,36.602,41.196,4.594,295.3,542.5,291.0
2023-09-29T02:39:07,2420,42.8014,5.9826,4330,272,186.634,57.174,13.321,36.023,36.604,41.194,4.590,295.2,542.5,290.9
2023-09-29T02:42:07,2420,42.8014,5.9826,4330,272,186.588,57.163,13.323,36.025,36.605,41.200,4.595,295.3,542.4,290.8
2023-09-29T02:45:07,2420,42.8014,5.9826,4330,272,186.472,57.130,13.325,36.032,36.612,41.202,4.590,295.4,542.4,290.7
2023-09-29T02:48:08,2420,42.8014,5.9826,4330,272,186.376,57.092,13.318,36.042,36.622,41.213,4.591,295.3,542.5,291.0
2023-09-29T02:51:08,2420,42.8014,5.9826,4330,272,186.643,57.172,13.317,36.025,36.605,41.201,4.596,295.2,542.4,291.0
2023-09-29T02:54:08,2420,42.8014,5.9826,4330,272,186.626,57.168,13.318,36.025,36.605,41.198,4.592,295.3,542.5,291.0
2023-09-29T02:57:08,2420,42.8014,5.9826,4330,272,186.729,57.201,13.319,36.018,36.599,41.195,4.596,295.3,542.4,290.9
2023-09-29T03:00:08,2420,42.8014,5.9826,4330,272,186.579,57.167,13.328,36.024,36.604,41.197,4.594,295.2,542.4,290.6
2023-09-29T03:03:07,2420,42.8014,5.9826,4330,272,186.629,57.169,13.318,36.025,36.605,41.202,4.596,295.3,542.4,291.0
2023-09-29T03:06:07,2420,42.8014,5.9826,4330,272,186.629,57.172,13.320,36.024,36.604,41.194,4.590,295.3,542.5,290.9
2023-09-29T03:09:07,2420,42.8014,5.9826,4330,272,186.574,57.155,13.319,36.028,36.608,41.200,4.592,295.3,542.4,290.9
2023-09-29T03:12:07,2420,42.8014,5.9826,4330,272,186.438,57.123,13.327,36.033,36.613,41.206,4.593,295.3,542.4,290.7
2023-09-29T03:15:07,2420,42.8014,5.9826,4330,272,186.481,57.130,13.323,36.032,36.612,41.203,4.591,295.3,542.4,290.8
2023-09-29T03:18:07,2420,42.8014,5.9826,4330,272,186.757,57.212,13.321,36.015,36.595,41.188,4.593,295.3,542.5,290.9
2023-09-29T03:21:07,2420,42.8014,5.9826,4330,272,186.765,57.213,13.320,36.016,36.596,41.189,4.593,295.3,542.4,290.9
2023-09-29T03:24:07,2420,42.8014,5.9826,4330,272,186.545,57.152,13.325,36.027,36.607,41.204,4.597,295.3,542.4,290.7
2023-09-29T03:27:07,2420,42.8014,5.9826,4330,272,186.750,57.215,13.324,36.014,36.594,41.189,4.595,295.2,542.4,290.8
2023-09-29T03:30:08,2420,42.8014,5.9826,4330,272,186.523,57.145,13.324,36.029,36.609,41.206,4.597,295.3,542.4,290.8
2023-09-29T03:33:07,2420,42.8014,5.9826,4330,272,186.464,57.123,13.322,36.034,36.614,41.205,4.592,295.3,542.4,290.8
2023-09-29T03:36:07,2420,42.8014,5.9826,4330,272,186.668,57.182,13.319,36.022,36.602,41.196,4.594,295.3,542.4,290.9
2023-09-29T03:39:08,2420,42.8014,5.9826,4330,272,186.637,57.178,13.323,36.022,36.603,41.193,4.591,295.3,542.4,290.8
2023-09-29T03:42:08,2420,42.8014,5.9826,4330,272,186.669,57.187,13.322,36.020,36.601,41.194,4.593,295.3,542.4,290.8
2023-09-29T03:45:08,2420,42.8014,5.9826,4330,272,186.580,57.173,13.332,36.021,36.602,41.198,4.596,295.3,542.4,290.5
2023-09-29T03:48:08,2420,42.8014,5.9826,4330,272,186.702,57.214,13.335,36.012,36.593,41.185,4.593,295.3,542.4,290.4
2023-09-29T03:51:08,2420,42.8014,5.9826,4330,272,186.502,57.153,13.336,36.024,36.604,41.199,4.595,295.3,542.3,290.4
2023-09-29T03:54:08,2420,42.8014,5.9826,4330,272,186.457,57.139,13.335,36.027,36.608,41.204,4.596,295.3,542.3,290.4
2023-09-29T03:57:08,2420,42.8014,5.9826,4330,272,186.206,57.058,13.332,36.045,36.625,41.217,4.592,295.3,542.4,290.5
2023-09-29T04:00:08,2420,42.8014,5.9826,4330,272,186.507,57.148,13.330,36.027,36.607,41.199,4.592,295.3,542.3,290.6
2023-09-29T04:03:07,2420,42.8014,5.9826,4330,272,186.455,57.127,13.327,36.032,36.612,41.202,4.590,295.4,542.4,290.7
2023-09-29T04:06:07,2420,42.8014,5.9826,4330,272,186.545,57.153,13.325,36.027,36.607,41.202,4.595,295.4,542.4,290.7
2023-09-29T04:09:07,2420,42.8014,5.9826,4330,272,186.514,57.138,13.321,36.031,36.611,41.203,4.592,295.3,542.4,290.9
2023-09-29T04:12:07,2420,42.8014,5.9826,4330,272,186.455,57.123,13.323,36.034,36.614,41.205,4.592,295.3,542.4,290.8
2023-09-29T04:15:07,2420,42.8014,5.9826,4330,272,186.621,57.174,13.323,36.023,36.603,41.198,4.596,295.4,542.4,290.8
2023-09-29T04:18:07,2420,42.8014,5.9826,4330,272,186.559,57.162,13.329,36.024,36.604,41.197,4.593,295.4,542.4,290.6
2023-09-29T04:21:07,2420,42.8014,5.9826,4330,272,186.319,57.082,13.324,36.042,36.622,41.211,4.589,295.3,542.4,290.8
2023-09-29T04:24:07,2420,42.8014,5.9826,4330,272,186.735,57.208,13.323,36.016,36.596,41.191,4.595,295.3,542.4,290.8
2023-09-29T04:27:07,2420,42.8014,5.9826,4330,272,186.507,57.141,13.325,36.029,36.609,41.201,4.592,295.4,542.4,290.7
2023-09-29T04:30:08,2420,42.8014,5.9826,4330,272,186.563,57.155,13.323,36.027,36.607,41.202,4.595,295.4,542.5,290.8
2023-09-29T04:33:07,2420,42.8014,5.9826,4330,272,186.792,57.223,13.321,36.013,36.593,41.188,4.596,295.4,542.4,290.9
2023-09-29T04:36:07,2420,42.8014,5.9826,4330,272,186.556,57.149,13.320,36.029,36.609,41.200,4.591,295.4,542.4,290.9
2023-09-29T04:39:07,2420,42.8014,5.9826,4330,272,186.536,57.148,13.324,36.028,36.608,41.201,4.593,295.3,542.4,290.8
2023-09-29T04:42:07,2420,42.8014,5.9826,4330,272,186.678,57.197,13.328,36.017,36.597,41.191,4.594,295.3,542.3,290.6
2023-09-29T04:45:08,2420,42.8014,5.9826,4330,272,186.481,57.133,13.325,36.031,36.611,41.207,4.596,295.3,542.4,290.7
2023-09-29T04:48:08,2420,42.8014,5.9826,4330,272,186.542,57.152,13.325,36.027,36.607,41.200,4.593,295.3,542.4,290.7
2023-09-29T04:51:08,2420,42.8014,5.9826,4330,272,186.600,57.176,13.330,36.021,36.601,41.194,4.593,295.3,542.4,290.6
2023-09-29T04:54:08,2420,42.8014,5.9826,4330,272,186.647,57.182,13.324,36.021,36.601,41.196,4.595,295.2,542.3,290.8
2023-09-29T04:57:08,2420,42.8014,5.9826,4330,272,186.894,57.261,13.326,36.004,36.584,41.180,4.595,295.3,542.4,290.7
2023-09-29T05:00:08,2420,42.8014,5.9826,4330,272,186.378,57.107,13.329,36.035,36.615,41.210,4.595,295.3,542.4,290.6
2023-09-29T05:03:07,2420,42.8014,5.9826,4330,272,186.409,57.123,13.334,36.031,36.612,41.201,4.589,295.3,542.4,290.4
2023-09-29T05:06:07,2420,42.8014,5.9826,4330,272,186.792,57.241,13.335,36.006,36.587,41.179,4.592,295.4,542.4,290.4
2023-09-29T05:09:07,2420,42.8014,5.9826,4330,272,186.382,57.119,13.338,36.031,36.611,41.201,4.590,295.4,542.3,290.3
2023-09-29T05:12:07,2420,42.8014,5.9826,4330,272,186.398,57.119,13.334,36.032,36.612,41.204,4.591,295.4,542.4,290.4
2023-09-29T05:15:07,2420,42.8014,5.9826,4330,272,186.412,57.124,13.335,36.031,36.611,41.205,4.595,295.3,542.4,290.4
2023-09-29T05:18:07,2420,42.8014,5.9826,4330,272,186.326,57.099,13.336,36.036,36.616,41.207,4.591,295.3,542.4,290.4
2023-09-29T05:21:07,2420,42.8014,5.9826,4330,272,186.423,57.129,13.335,36.030,36.610,41.201,4.592,295.4,542.4,290.4
2023-09-29T05:24:07,2420,42.8014,5.9826,4330,272,186.472,57.140,13.333,36.028,36.608,41.204,4.596,295.4,542.4,290.5
2023-09-29T05:27:07,2420,42.8014,5.9826,4330,272,186.458,57.137,13.334,36.028,36.608,41.207,4.599,295.3,542.3,290.4
2023-09-29T05:30:08,2420,42.8014,5.9826,4330,272,186.417,57.123,13.333,36.032,36.612,41.205,4.594,295.4,542.3,290.5
2023-09-29T05:33:07,2420,42.8014,5.9826,4330,272,186.469,57.131,13.326,36.031,36.611,41.208,4.597,295.4,542.4,290.7
2023-09-29T05:36:07,2420,42.8014,5.9826,4330,272,186.311,57.087,13.330,36.040,36.620,41.216,4.596,295.4,542.4,290.6
2023-09-29T05:39:07,2420,42.8014,5.9826,4330,272,186.454,57.132,13.331,36.030,36.610,41.206,4.596,295.4,542.4,290.5
2023-09-29T05:42:08,2420,42.8014,5.9826,4330,272,186.403,57.114,13.329,36.035,36.615,41.209,4.594,295.4,542.4,290.6
2023-09-29T05:45:08,2420,42.8014,5.9826,4330,272,186.202,57.050,13.327,36.048,36.628,41.221,4.593,295.4,542.4,290.7
2023-09-29T05:48:08,2420,42.8014,5.9826,4330,272,186.448,57.126,13.328,36.033,36.613,41.210,4.597,295.4,542.4,290.6
2023-09-29T05:51:08,2420,42.8014,5.9826,4330,272,186.368,57.105,13.330,36.036,36.616,41.212,4.597,295.4,542.4,290.6
2023-09-29T05:54:08,2420,42.8014,5.9826,4330,272,186.439,57.121,13.326,36.033,36.613,41.210,4.596,295.4,542.4,290.7
2023-09-29T05:57:08,2420,42.8014,5.9826,4330,272,186.379,57.101,13.325,36.038,36.618,41.211,4.593,295.5,542.4,290.7
2023-09-29T06:00:07,2420,42.8014,5.9826,4330,272,186.426,57.120,13.328,36.034,36.614,41.210,4.597,295.4,542.4,290.6
2023-09-29T06:03:07,2420,42.8014,5.9826,4330,272,186.383,57.104,13.326,36.037,36.618,41.209,4.592,295.4,542.4,290.7
2023-09-29T06:06:07,2420,42.8014,5.9826,4330,272,186.456,57.137,13.334,36.028,36.608,41.200,4.592,295.4,542.4,290.4
2023-09-29T06:09:07,2420,42.8014,5.9826,4330,272,186.271,57.088,13.340,36.037,36.618,41.206,4.589,295.3,542.4,290.2
2023-09-29T06:12:07,2420,42.8014,5.9826,4330,272,186.538,57.162,13.334,36.023,36.603,41.197,4.593,295.4,542.4,290.4
2023-09-29T06:15:07,2420,42.8014,5.9826,4330,272,186.317,57.087,13.328,36.040,36.620,41.213,4.592,295.4,542.4,290.6
2023-09-29T06:18:07,2420,42.8014,5.9826,4330,272,186.319,57.085,13.326,36.041,36.621,41.211,4.590,295.4,542.4,290.7
2023-09-29T06:21:08,2420,42.8014,5.9826,4330,272,186.489,57.143,13.331,36.028,36.608,41.203,4.595,295.4,542.4,290.5
2023-09-29T06:24:08,2420,42.8014,5.9826,4330,272,186.262,57.077,13.334,36.041,36.621,41.213,4.592,295.4,542.3,290.5
2023-09-29T06:27:08,2420,42.8014,5.9826,4330,272,186.376,57.118,13.338,36.032,36.612,41.203,4.592,295.4,542.3,290.3
2023-09-29T06:30:08,2420,42.8014,5.9826,4330,272,186.413,57.115,13.327,36.034,36.614,41.212,4.598,295.5,542.5,290.7
2023-09-29T06:33:07,2420,42.8014,5.9826,4330,272,186.364,57.104,13.330,36.036,36.616,41.209,4.593,295.5,542.4,290.6
2023-09-29T06:36:07,2420,42.8014,5.9826,4330,272,186.101,57.025,13.332,36.052,36.632,41.226,4.594,295.4,542.4,290.5
2023-09-29T06:39:07,2420,42.8014,5.9826,4330,272,186.508,57.154,13.335,36.024,36.604,41.200,4.596,295.3,542.4,290.4
2023-09-29T06:42:07,2420,42.8014,5.9826,4330,272,186.045,57.018,13.340,36.052,36.632,41.222,4.590,295.5,542.3,290.2
2023-09-29T06:45:07,2420,42.8014,5.9826,4330,272,186.133,57.046,13.340,36.046,36.626,41.216,4.589,295.4,542.3,290.2
2023-09-29T06:48:07,2420,42.8014,5.9826,4330,272,186.256,57.079,13.337,36.040,36.620,41.217,4.596,295.4,542.3,290.4
2023-09-29T06:51:07,2420,42.8014,5.9826,4330,272,186.277,57.089,13.340,36.037,36.617,41.214,4.597,295.4,542.4,290.2
2023-09-29T06:54:07,2420,42.8014,5.9826,4330,272,186.303,57.095,13.338,36.036,36.616,41.211,4.595,295.4,542.3,290.3
2023-09-29T06:57:07,2420,42.8014,5.9826,4330,272,186.178,57.060,13.341,36.043,36.623,41.215,4.592,295.4,542.4,290.2
2023-09-29T07:00:07,2420,42.8014,5.9826,4330,272,186.205,57.068,13.341,36.042,36.622,41.216,4.594,295.5,542.3,290.2
2023-09-29T07:03:07,2420,42.8014,5.9826,4330,272,186.560,57.169,13.334,36.022,36.602,41.196,4.594,295.4,542.4,290.4
2023-09-29T07:06:07,2420,42.8014,5.9826,4330,272,186.406,57.107,13.323,36.037,36.617,41.213,4.595,295.4,542.5,290.8
2023-09-29T07:09:07,2420,42.8014,5.9826,4330,272,186.673,57.198,13.330,36.016,36.597,41.194,4.597,295.4,542.4,290.6
2023-09-29T07:12:07,2420,42.8014,5.9826,4330,272,186.228,57.067,13.334,36.043,36.623,41.218,4.595,295.5,542.4,290.4
2023-09-29T07:15:08,2420,42.8014,5.9826,4330,272,186.360,57.095,13.324,36.039,36.619,41.209,4.590,295.4,542.4,290.8
2023-09-29T07:18:08,2420,42.8014,5.9826,4330,272,186.369,57.097,13.324,36.039,36.619,41.211,4.592,295.4,542.4,290.8
2023-09-29T07:21:08,2420,42.8014,5.9826,4330,272,186.256,57.065,13.326,36.045,36.625,41.220,4.595,295.5,542.4,290.7
2023-09-29T07:24:08,2420,42.8014,5.9826,4330,272,186.312,57.084,13.327,36.041,36.621,41.215,4.594,295.5,542.3,290.7
2023-09-29T07:27:07,2420,42.8014,5.9826,4330,272,186.318,57.090,13.331,36.039,36.619,41.212,4.593,295.4,542.4,290.6
2023-09-29T07:30:07,2420,42.8014,5.9826,4330,272,186.456,57.134,13.332,36.029,36.609,41.201,4.591,295.5,542.4,290.5
2023-09-29T07:33:08,2420,42.8014,5.9826,4330,272,186.109,57.031,13.334,36.051,36.631,41.223,4.591,295.4,542.3,290.4
2023-09-29T07:36:08,2420,42.8014,5.9826,4330,272,186.407,57.126,13.337,36.030,36.610,41.205,4.595,295.6,542.3,290.3
2023-09-29T07:39:08,2420,42.8014,5.9826,4330,272,186.017,57.005,13.336,36.056,36.636,41.230,4.594,295.5,542.4,290.4
2023-09-29T07:42:07,2420,42.8014,5.9826,4330,272,186.280,57.088,13.338,36.038,36.618,41.212,4.594,295.4,542.4,290.3
2023-09-29T07:45:07,2420,42.8014,5.9826,4330,272,186.181,57.044,13.327,36.050,36.630,41.223,4.593,295.4,542.4,290.7
2023-09-29T07:48:07,2420,42.8014,5.9826,4330,272,186.193,57.053,13.331,36.047,36.627,41.222,4.595,295.5,542.4,290.5
2023-09-29T07:51:07,2420,42.8014,5.9826,4330,272,186.065,57.021,13.337,36.053,36.633,41.227,4.595,295.5,542.4,290.3
2023-09-29T07:54:07,2420,42.8014,5.9826,4330,272,186.315,57.101,13.340,36.035,36.615,41.211,4.596,295.5,542.4,290.3
2023-09-29T07:57:07,2420,42.8014,5.9826,4330,272,186.318,57.090,13.330,36.039,36.619,41.212,4.593,295.5,542.4,290.6
2023-09-29T08:00:08,2420,42.8014,5.9826,4330,272,186.591,57.158,13.318,36.027,36.607,41.200,4.593,295.5,542.4,290.9
2023-09-29T08:03:07,2420,42.8014,5.9826,4330,272,186.477,57.140,13.332,36.028,36.608,41.207,4.598,295.5,542.4,290.5
2023-09-29T08:06:07,2420,42.8014,5.9826,4330,272,186.292,57.089,13.336,36.038,36.618,41.214,4.596,295.5,542.4,290.4
2023-09-29T08:09:07,2420,42.8014,5.9826,4330,272,186.407,57.110,13.325,36.036,36.616,41.216,4.600,295.4,542.4,290.7
2023-09-29T08:12:07,2420,42.8014,5.9826,4330,272,186.313,57.074,13.319,36.045,36.625,41.215,4.590,295.4,542.4,290.9
2023-09-29T08:15:07,2420,42.8014,5.9826,4330,272,186.393,57.110,13.328,36.036,36.616,41.208,4.593,295.4,542.4,290.6
2023-09-29T08:18:07,2420,42.8014,5.9826,4330,272,186.310,57.085,13.328,36.041,36.621,41.213,4.592,295.5,542.3,290.6
2023-09-29T08:21:08,2420,42.8014,5.9826,4330,272,186.518,57.143,13.324,36.029,36.610,41.204,4.594,295.5,542.4,290.8
2023-09-29T08:24:08,2420,42.8014,5.9826,4330,272,186.105,57.019,13.326,36.055,36.635,41.224,4.589,295.5,542.4,290.7
2023-09-29T08:27:08,2420,42.8014,5.9826,4330,272,186.366,57.096,13.324,36.039,36.619,41.214,4.595,295.5,542.5,290.8
2023-09-29T08:30:08,2420,42.8014,5.9826,4330,272,186.369,57.103,13.329,36.036,36.616,41.208,4.592,295.4,542.4,290.6
2023-09-29T08:33:07,2420,42.8014,5.9826,4330,272,186.151,57.039,13.330,36.050,36.630,41.224,4.594,295.5,542.4,290.6
2023-09-29T08:36:07,2420,42.8014,5.9826,4330,272,186.193,57.049,13.329,36.048,36.628,41.222,4.593,295.5,542.4,290.6
2023-09-29T08:39:07,2420,42.8014,5.9826,4330,272,186.587,57.170,13.328,36.023,36.603,41.200,4.597,295.5,542.3,290.6
2023-09-29T08:42:07,2420,42.8014,5.9826,4330,272,186.367,57.098,13.325,36.039,36.619,41.212,4.593,295.5,542.4,290.7
2023-09-29T08:45:07,2420,42.8014,5.9826,4330,272,186.240,57.064,13.329,36.045,36.625,41.218,4.593,295.4,542.4,290.6
2023-09-29T08:48:07,2420,42.8014,5.9826,4330,272,186.280,57.076,13.329,36.042,36.622,41.213,4.591,295.4,542.4,290.6
2023-09-29T08:51:08,2420,42.8014,5.9826,4330,272,186.669,57.194,13.327,36.017,36.598,41.193,4.596,295.4,542.4,290.7
2023-09-29T08:54:08,2420,42.8014,5.9826,4330,272,186.259,57.078,13.335,36.041,36.621,41.213,4.592,295.4,542.3,290.4
2023-09-29T08:57:08,2420,42.8014,5.9826,4330,272,186.240,57.064,13.328,36.045,36.625,41.214,4.589,295.5,542.4,290.6
2023-09-29T09:00:08,2420,42.8014,5.9826,4330,272,186.228,57.048,13.319,36.051,36.631,41.218,4.588,295.4,542.4,290.9
2023-09-29T09:03:07,2420,42.8014,5.9826,4330,272,186.398,57.107,13.324,36.037,36.617,41.209,4.592,295.4,542.5,290.8
2023-09-29T09:06:07,2420,42.8014,5.9826,4330,272,186.694,57.185,13.314,36.023,36.603,41.198,4.595,295.4,542.4,291.1
2023-09-29T09:09:07,2420,42.8014,5.9826,4330,272,186.606,57.155,13.312,36.029,36.609,41.206,4.597,295.3,542.5,291.2
2023-09-29T09:12:07,2420,42.8014,5.9826,4330,272,186.738,57.198,13.314,36.019,36.600,41.196,4.597,295.4,542.5,291.1
2023-09-29T09:15:07,2420,42.8014,5.9826,4330,272,186.712,57.187,13.312,36.022,36.602,41.194,4.591,295.4,542.5,291.2
2023-09-29T09:18:07,2420,42.8014,5.9826,4330,272,186.660,57.191,13.327,36.018,36.598,41.194,4.596,295.3,542.5,290.7
2023-09-29T09:21:07,2420,42.8014,5.9826,4330,272,186.503,57.133,13.319,36.032,36.612,41.208,4.596,295.3,542.5,290.9
2023-09-29T09:24:07,2420,42.8014,5.9826,4330,272,186.525,57.146,13.324,36.028,36.608,41.198,4.590,295.3,542.4,290.8
2023-09-29T09:27:08,2420,42.8014,5.9826,4330,272,186.411,57.106,13.320,36.038,36.618,41.207,4.589,295.4,542.5,290.9
2023-09-29T09:30:08,2420,42.8014,5.9826,4330,272,186.423,57.115,13.325,36.035,36.615,41.208,4.593,295.4,542.5,290.7
2023-09-29T09:33:07,2420,42.8014,5.9826,4330,272,186.307,57.073,13.320,36.045,36.625,41.217,4.592,295.4,542.5,290.9
2023-09-29T09:36:07,2420,42.8014,5.9826,4330,272,186.589,57.150,13.313,36.030,36.610,41.202,4.592,295.3,542.5,291.1
2023-09-29T09:39:07,2420,42.8014,5.9826,4330,272,186.475,57.125,13.320,36.034,36.614,41.209,4.595,295.3,542.5,290.9
2023-09-29T09:42:07,2420,42.8014,5.9826,4330,272,186.594,57.151,13.312,36.031,36.611,41.205,4.594,295.3,542.5,291.2
2023-09-29T09:45:07,2420,42.8014,5.9826,4330,272,186.623,57.167,13.317,36.025,36.606,41.199,4.593,295.3,542.5,291.0
2023-09-29T09:48:08,2420,42.8014,5.9826,4330,272,186.737,57.204,13.319,36.017,36.597,41.190,4.593,295.3,542.5,290.9
2023-09-29T09:51:08,2420,42.8014,5.9826,4330,272,186.675,57.192,13.325,36.018,36.599,41.191,4.592,295.3,542.5,290.7
2023-09-29T09:54:08,2420,42.8014,5.9826,4330,272,186.563,57.166,13.331,36.023,36.603,41.199,4.596,295.3,542.4,290.5
2023-09-29T09:57:08,2420,42.8014,5.9826,4330,272,186.390,57.113,13.331,36.034,36.614,41.205,4.591,295.3,542.4,290.5
2023-09-29T10:00:08,2420,42.8014,5.9826,4330,272,186.349,57.092,13.325,36.040,36.620,41.214,4.594,295.4,542.5,290.7